Location: Brachstadt
(48.6975°N, 10.6755°E)
Time: 08:56:22
(UTC+00:00)

CENTAUR R/B - Pass Details

Date: 18 September 2020
Orbit: 755 x 1433 km, 63.4° (Epoch: 02 October)

Event Time Altitude Azimuth Distance (km) Brightness Sun altitude
Rises 21:14:35 0° 315° (NW) 4,208 6.8 -33.9°
Reaches altitude 10° 21:17:34 10° 306° (NW) 3,322 6.0 -34.2°
Maximum altitude 21:24:42 34° 246° (WSW) 2,132 4.2 -34.8°
Enters shadow 21:25:43 33° 233° (SW) 2,177 4.2 -34.9°
